This is the latest recevied weather packets stored in our database for station/object W6MAF. If no packets are shown the sender has not sent any weather packets the latest 10 day(s).
| Time | Temp. | Humidity | Pressure | Rain* | Wind** | Luminosity | Snow |
|---|---|---|---|---|---|---|---|
| 1788086894 | 19.44° C | 43% | - | 0 mm | 2.24 m/s, 203° | - | - |
| 1788086597 | 19.44° C | 43% | - | 0 mm | 1.79 m/s, 235° | - | - |
| 1788086296 | 19.44° C | 43% | - | 0 mm | 2.68 m/s, 240° | - | - |
| 1788085998 | 19.44° C | 43% | - | 0 mm | 2.68 m/s, 242° | - | - |
| 1788085700 | 19.44° C | 44% | - | 0 mm | 2.68 m/s, 239° | - | - |
| 1788085403 | 19.44° C | 44% | - | 0 mm | 2.68 m/s, 260° | - | - |
| 1788085115 | 20° C | 44% | - | 0 mm | 1.79 m/s, 243° | - | - |
| 1788084807 | 20° C | 44% | - | 0 mm | 3.13 m/s, 233° | - | - |
| 1788084506 | 20° C | 45% | - | 0 mm | 2.68 m/s, 239° | - | - |
| 1788084245 | 20° C | 45% | - | 0 mm | 3.13 m/s, 232° | - | - |
| 1788084209 | 20° C | 45% | - | 0 mm | 3.13 m/s, 232° | - | - |
| 1788083911 | 20° C | 46% | - | 0 mm | 3.13 m/s, 262° | - | - |
| 1788083613 | 20° C | 46% | - | 0 mm | 3.58 m/s, 233° | - | - |
| 1788083316 | 20° C | 47% | - | 0 mm | 3.58 m/s, 233° | - | - |
| 1788083024 | 20° C | 47% | - | 0 mm | 3.58 m/s, 235° | - | - |
| 1788082717 | 20° C | 46% | - | 0 mm | 3.13 m/s, 224° | - | - |
| 1788082419 | 20° C | 44% | - | 0 mm | 3.13 m/s, 242° | - | - |
| 1788082122 | 20° C | 44% | - | 0 mm | 2.68 m/s, 233° | - | - |
| 1788081824 | 20.56° C | 43% | - | 0 mm | 3.13 m/s, 239° | - | - |
| 1788081526 | 20.56° C | 42% | - | 0 mm | 3.13 m/s, 242° | - | - |
| 1788081229 | 20.56° C | 41% | - | 0 mm | 2.68 m/s, 250° | - | - |
| 1788080630 | 20.56° C | 42% | - | 0 mm | 4.02 m/s, 248° | - | - |
| 1788080332 | 20.56° C | 42% | - | 0 mm | 4.92 m/s, 219° | - | - |
| 1788080035 | 20.56° C | 42% | - | 0 mm | 6.26 m/s, 217° | - | - |
| 1788079737 | 20.56° C | 42% | - | 0 mm | 4.02 m/s, 239° | - | - |
* Rain latest hour (hover to see other rain measurements)
** Current wind speed in m/s (hover to see current wind gust speed)